This demonstration page uses our WeatherBlox Daily Observations layout. Learn more.

Left ArrowRight Arrow

Hourly Observations for September 14, 2018

Temp ( °F °C ) Dew Point ( °F °C ) Humidity (%) Winds ( mph kmh ) Pressure ( in mb ) Visibility ( mi km ) Precip ( " mm )
12:53 am 00:53 Clear 71 21.7 63 17.2 76 76 SE 7 11 29.92 1013 10 16 0.00 0.00
1:53 am 01:53 Clear 70 21.1 63 17.2 79 79 ESE 7 11 29.91 1013 10 16 0.00 0.00
2:53 am 02:53 Clear 70 21.1 63 17.2 79 79 ESE 8 13 29.91 1013 10 16 0.00 0.00
3:53 am 03:53 Clear 69 20.6 64 17.8 84 84 ESE 5 7 29.90 1013 10 16 0.00 0.00
4:53 am 04:53 Clear 69 20.6 64 17.8 84 84 SE 8 13 29.90 1013 10 16 0.00 0.00
5:53 am 05:53 Clear 67 19.4 64 17.8 91 91 ESE 5 7 29.90 1013 10 16 0.00 0.00
6:53 am 06:53 Clear 66 18.9 64 17.8 93 93 E 6 9 29.91 1013 10 16 0.00 0.00
7:53 am 07:53 Sunny 65 18.3 64 17.8 97 97 E 5 7 29.93 1014 10 16 0.00 0.00
8:53 am 08:53 Sunny 70 21.1 66 18.9 87 87 ESE 8 13 29.95 1014 10 16 0.00 0.00
9:53 am 09:53 Mostly Sunny 74 23.3 67 19.4 79 79 SE 10 17 29.95 1014 10 16 0.00 0.00
10:53 am 10:53 Sunny 78 25.6 66 18.9 67 67 SE 12 19 29.96 1015 10 16 0.00 0.00
11:53 am 11:53 Mostly Sunny 80 26.7 65 18.3 60 60 SE 14 22 29.95 1014 10 16 0.00 0.00
12:53 pm 12:53 Mostly Sunny 83 28.3 65 18.3 55 55 ESE 12 19 29.94 1014 10 16 0.00 0.00
1:53 pm 13:53 Mostly Sunny 85 29.4 65 18.3 51 51 E 10 17 29.93 1013 10 16 0.00 0.00
2:53 pm 14:53 Partly Cloudy 86 30 64 17.8 48 48 E 12 19 29.91 1013 10 16 0.00 0.00
3:53 pm 15:53 Sunny 87 30.6 63 17.2 45 45 SE 10 17 29.88 1012 10 16 0.00 0.00
4:53 pm 16:53 Mostly Sunny 86 30 61 16.1 43 43 ESE 6 9 29.87 1012 10 16 0.00 0.00
5:53 pm 17:53 Partly Cloudy 88 31.1 61 16.1 40 40 E 9 15 29.86 1011 10 16 0.00 0.00
6:53 pm 18:53 Mostly Sunny 87 30.6 60 15.6 40 40 E 8 13 29.86 1011 10 16 0.00 0.00
7:53 pm 19:53 Sunny 83 28.3 62 16.7 49 49 ESE 12 19 29.88 1012 10 16 0.00 0.00
8:53 pm 20:53 Clear 80 26.7 62 16.7 54 54 E 9 15 29.89 1012 10 16 0.00 0.00
9:53 pm 21:53 Clear 77 25 61 16.1 58 58 E 9 15 29.91 1013 10 16 0.00 0.00
10:53 pm 22:53 Clear 76 24.4 61 16.1 60 60 E 8 13 29.92 1013 10 16 0.00 0.00
11:53 pm 23:53 Clear 74 23.3 62 16.7 67 67 ESE 7 11 29.93 1014 10 16 0.00 0.00

Powered by AerisWeather